Date,TemperatureHighF,TemperatureAvgF,TemperatureLowF,DewpointHighF,DewpointAvgF,DewpointLowF,HumidityHigh,HumidityAvg,HumidityLow,PressureMaxIn,PressureMinIn,WindSpeedMaxMPH,WindSpeedAvgMPH,GustSpeedMaxMPH,PrecipitationSumIn
2013-3-3,39,36,32,31,28,25,79,73,61,29.69,29.62,15,9,0,0.00
2013-3-4,44,36,31,30,27,24,81,70,54,29.74,29.65,19,12,0,0.00
2013-3-5,50,39,33,33,29,25,78,67,50,30.01,29.75,20,10,0,0.00
2013-3-6,43,40,35,38,34,31,84,82,69,30.03,29.82,30,11,0,0.00
2013-3-7,43,38,35,35,33,30,84,81,70,29.98,29.81,25,17,0,0.19
2013-3-8,40,38,34,34,32,29,84,79,71,30.09,29.96,14,10,21,0.83
2013-3-9,54,42,32,36,31,27,89,66,40,30.33,30.04,17,9,24,0.00
2013-3-10,42,37,32,36,32,28,84,82,77,30.39,30.31,12,6,13,0.00
2013-3-11,49,43,34,44,38,29,83,82,79,30.33,30.13,12,6,15,0.00
2013-3-12,51,49,45,45,43,38,81,78,74,30.13,29.72,27,16,33,0.27
2013-3-13,52,45,39,39,34,29,81,67,44,29.84,29.76,13,9,20,0.01
2013-3-14,41,35,32,32,22,16,77,59,46,29.90,29.81,18,12,29,0.00
2013-3-15,44,37,31,34,24,15,74,58,47,29.94,29.71,17,10,25,0.00
2013-3-16,41,36,34,31,27,20,82,69,45,29.89,29.75,13,5,22,0.02
2013-3-17,39,35,31,30,21,14,82,59,39,30.29,29.88,14,8,18,0.00
2013-3-18,37,33,27,30,21,12,82,62,46,30.42,30.06,18,9,26,0.15
2013-3-19,43,40,36,37,34,30,83,79,77,30.06,29.58,20,12,28,0.81
2013-3-20,44,38,32,33,27,22,83,66,49,29.85,29.75,16,8,28,0.00
2013-3-21,39,36,31,32,28,26,84,74,63,29.82,29.61,12,6,18,0.00
2013-3-22,43,36,30,27,23,19,84,59,43,29.83,29.67,15,10,22,0.00
2013-3-23,47,40,32,28,26,24,76,58,43,29.87,29.73,20,12,32,0.00
2013-3-24,47,40,32,34,27,23,79,61,47,29.91,29.70,14,8,18,0.00
2013-3-25,43,39,35,34,32,30,84,76,61,29.74,29.42,19,9,24,0.11
2013-3-26,52,42,36,36,33,30,84,70,45,29.82,29.51,12,6,15,0.12
2013-3-27,54,45,36,34,30,27,78,59,37,29.90,29.80,15,8,20,0.00
2013-3-28,51,44,39,39,36,32,80,71,63,30.05,29.89,12,7,17,0.00
2013-3-29,56,46,41,40,37,34,80,69,44,30.09,30.02,12,7,18,0.00
2013-3-30,58,46,40,40,35,28,80,67,32,30.13,30.05,14,7,19,0.00
2013-3-31,50,44,34,44,38,30,85,82,77,30.14,29.63,19,6,24,0.11
2013-4-1,51,46,40,45,40,26,82,78,56,29.84,29.61,15,9,28,0.21
2013-4-2,44,39,33,25,20,15,64,48,32,30.05,29.84,18,11,24,0.00
2013-4-3,46,40,34,23,19,17,56,44,32,30.24,30.03,17,13,28,0.00
2013-4-4,44,39,31,36,28,19,81,64,45,30.37,30.12,18,11,24,0.00
2013-4-5,60,46,42,44,37,29,83,72,35,30.12,29.67,17,7,23,0.03
2013-4-6,49,42,38,34,25,13,77,53,24,30.33,29.92,16,10,23,0.00
2013-4-7,49,45,37,44,39,32,83,80,66,30.32,30.04,20,10,24,0.00
2013-4-8,62,51,46,49,44,40,82,78,57,30.08,29.98,11,6,11,0.00
2013-4-9,79,57,48,55,46,41,82,69,33,30.05,29.89,15,7,18,0.00
2013-4-10,67,53,48,54,46,43,83,79,64,29.99,29.80,17,7,21,0.12
2013-4-11,60,50,46,52,43,40,80,77,74,30.07,29.78,17,8,22,0.19
2013-4-12,46,43,41,40,37,35,81,78,75,30.07,29.69,26,13,33,0.78
2013-4-13,53,46,40,44,39,35,86,79,65,29.97,29.68,12,8,19,0.05
2013-4-14,57,50,46,45,38,31,81,65,40,30.21,29.96,16,8,25,0.00
2013-4-15,49,45,40,41,37,31,82,72,56,30.39,30.21,11,5,14,0.00
2013-4-16,54,50,44,48,43,38,81,79,78,30.39,30.14,21,11,25,0.00
2013-4-17,69,56,48,48,44,39,81,66,34,30.30,30.10,10,6,13,0.01
2013-4-18,55,50,43,46,42,38,82,75,55,30.38,30.13,16,9,22,0.00
2013-4-19,58,55,51,48,45,42,76,70,66,30.13,29.70,25,15,29,0.01
2013-4-20,58,53,46,47,41,35,79,66,45,30.22,29.66,21,9,28,0.38
2013-4-21,55,45,38,36,30,24,76,57,36,30.64,30.22,16,10,27,0.00
2013-4-22,50,44,38,40,36,32,80,73,55,30.66,30.50,19,11,30,0.00
2013-4-23,51,46,42,44,39,35,80,78,74,30.50,30.01,15,10,28,0.00
2013-4-24,56,49,45,47,41,38,79,76,68,30.03,29.90,18,12,23,0.00
2013-4-25,65,53,48,47,41,35,78,64,33,30.27,29.89,13,8,18,0.00
2013-4-26,59,51,40,50,44,34,80,76,67,30.39,30.27,8,4,10,0.00
2013-4-27,60,50,43,48,42,34,79,74,57,30.41,30.32,9,6,13,0.00
2013-4-28,56,50,41,49,41,32,76,70,58,30.34,30.24,11,6,13,0.00
2013-4-29,56,54,52,47,46,44,76,74,70,30.27,30.22,13,8,16,0.00
2013-4-30,59,53,44,47,40,33,77,64,40,30.34,30.22,13,6,15,0.00
2013-5-1,60,49,42,50,41,35,78,75,67,30.45,30.33,12,5,13,0.00
2013-5-10,74,60,51,62,48,37,76,65,55,29.98,29.92,11,4,0,0.00
2013-5-11,60,58,56,49,43,38,69,57,51,29.93,29.70,21,9,0,0.30
2013-5-13,58,53,49,42,35,32,64,51,39,30.05,29.96,22,9,0,0.00
2013-5-14,52,52,52,39,38,37,60,59,58,30.08,30.07,10,8,0,0.00
2013-5-15,58,57,55,49,44,38,73,64,53,30.04,29.70,22,11,27,0.00
2013-5-16,65,59,53,55,45,35,71,60,47,29.81,29.68,12,6,21,0.00
2013-5-17,73,62,53,53,47,39,73,60,40,30.20,29.80,11,6,16,0.00
2013-5-18,64,59,54,55,49,41,74,70,59,30.32,30.20,11,6,14,0.00
2013-5-19,58,57,55,50,42,36,74,59,46,30.36,30.18,14,7,17,0.24
2013-5-20,63,59,56,42,36,33,48,42,37,30.18,29.97,13,6,16,0.00
2013-5-21,64,61,58,41,33,26,44,35,27,29.97,29.87,12,6,17,0.00
2013-5-22,67,60,54,50,23,12,57,25,15,29.96,29.88,12,6,15,0.00
2013-5-23,66,62,60,25,2,-40,21,10,1,29.95,29.81,19,12,22,0.15
2013-5-24,65,59,51,47,-23,-100,65,15,1,29.85,29.68,18,9,25,0.15
2013-5-25,51,49,48,42,23,-2,75,42,12,29.89,29.77,22,13,38,0.19
2013-5-26,65,55,47,46,44,39,75,65,49,30.17,29.86,18,11,26,0.00
2013-5-27,64,57,48,51,46,31,76,67,48,30.21,30.13,12,7,21,0.00
2013-5-28,67,58,50,57,25,-23,73,39,3,30.23,30.16,14,5,19,0.16
2013-5-29,65,60,57,43,10,-17,49,17,5,30.16,30.02,17,8,20,0.05
2013-5-30,71,65,59,59,37,-11,67,42,5,30.12,30.05,13,6,17,0.00
2013-5-31,73,67,62,63,41,-19,72,46,3,30.11,30.00,11,5,15,0.00
2013-6-1,70,66,61,56,34,4,64,35,9,30.03,29.94,12,8,17,0.00
2013-6-2,69,65,62,50,6,-100,52,22,1,29.96,29.82,19,10,29,0.00
2013-6-3,64,62,60,8,-84,-100,11,1,1,29.86,29.79,12,6,15,0.26
2013-6-4,75,65,58,56,37,-100,71,50,2,30.07,29.82,15,9,21,0.00
2013-6-5,71,62,56,55,42,-11,72,52,6,30.20,30.07,12,5,13,0.00
2013-6-6,68,62,56,57,-1,-100,72,33,1,30.17,30.03,12,6,16,0.00
2013-6-7,68,61,59,40,-65,-100,45,7,1,30.03,29.64,22,11,26,2.73
2013-6-8,72,65,56,61,-42,-100,69,16,2,30.02,29.49,26,10,27,0.38
2013-6-9,75,68,61,63,18,-100,72,44,1,30.17,30.02,10,4,14,0.00
2013-6-10,70,64,60,42,-38,-100,41,9,1,30.17,29.88,15,7,21,2.73
2013-6-11,72,67,63,45,-58,-100,44,7,3,29.88,29.59,14,8,21,0.15
2013-6-12,76,70,63,60,57,44,73,64,51,29.83,29.63,16,10,22,0.00
2013-6-13,64,61,57,52,22,-13,66,30,5,29.81,29.46,16,10,25,0.50
2013-6-14,73,63,56,59,21,-100,72,51,1,29.82,29.47,13,8,22,0.51
2013-6-15,82,69,62,61,50,17,72,52,16,29.96,29.82,12,7,17,0.00
2013-6-16,72,68,58,57,34,-100,62,38,3,29.96,29.77,12,6,16,0.00
2013-6-17,77,70,63,66,7,-100,71,31,2,29.91,29.82,10,4,13,0.00
2013-6-18,74,68,62,60,-17,-100,62,18,1,29.90,29.82,11,6,13,0.20
2013-6-19,79,68,61,62,26,-100,73,46,2,30.15,29.83,10,6,17,0.00
2013-6-20,71,65,57,62,52,30,74,63,35,30.27,30.15,13,5,15,0.00
2013-6-21,70,67,64,62,55,41,75,65,43,30.30,30.25,12,8,18,0.00
2013-6-22,72,69,65,63,22,-100,74,45,1,30.26,30.15,12,8,15,0.00
2013-6-23,74,70,66,56,-35,-100,55,16,2,30.19,30.08,14,8,22,0.00
2013-6-24,80,74,68,68,-24,-100,70,18,6,30.08,29.93,12,6,17,0.00
2013-6-25,78,74,69,61,20,-100,59,29,1,29.97,29.78,12,5,19,0.00
2013-6-26,85,75,72,73,22,-100,72,39,2,29.83,29.74,14,5,22,0.00
2013-6-27,79,72,68,62,-65,-100,55,7,1,29.82,29.64,16,5,18,0.28
2013-6-28,76,71,70,10,-98,-100,8,0,4,29.64,29.51,18,10,21,0.01
2013-6-29,77,72,70,48,-68,-100,36,5,1,29.72,29.49,13,8,16,0.00
2013-6-30,74,71,70,49,-80,-100,43,4,2,29.94,29.72,16,8,18,0.01
2013-7-1,77,72,70,18,-94,-100,11,0,1,30.08,29.93,14,9,16,0.00
2013-7-2,78,73,70,32,-90,-100,19,1,2,30.20,30.08,14,8,16,0.00
2013-7-3,74,72,70,-100,-100,-100,0,0,100,30.25,30.18,11,7,15,0.00
2013-7-4,79,74,71,38,-69,-100,23,3,2,30.25,30.17,14,8,20,0.00
2013-7-5,80,76,73,52,-31,-100,40,10,2,30.21,30.10,13,8,20,0.00
2013-7-6,84,78,73,68,-7,-100,61,21,1,30.12,30.01,11,7,16,0.00
2013-7-7,80,78,72,59,10,-100,49,21,1,30.04,29.93,12,6,18,0.00
2013-7-8,82,76,72,74,50,-7,76,46,4,30.03,29.93,12,7,18,0.00
2013-7-9,80,76,71,71,19,-100,75,32,4,30.07,30.00,10,6,14,0.00
2013-7-10,80,75,72,58,-46,-100,48,10,1,30.02,29.82,12,8,19,0.01
2013-7-11,76,74,71,15,-89,-100,10,1,1,29.90,29.80,9,5,16,0.05
2013-7-12,79,73,69,70,23,-100,75,37,2,30.12,29.89,12,6,19,0.00
2013-7-13,78,73,68,37,-96,-100,24,1,4,30.28,30.12,11,6,14,0.06
2013-7-14,86,78,71,74,-11,-100,69,23,1,30.31,30.22,11,6,16,0.02
2013-7-15,95,83,76,78,38,-100,73,45,1,30.22,30.10,9,4,12,0.00
2013-7-16,96,85,78,76,66,31,74,55,19,30.15,30.09,8,4,11,0.00
2013-7-17,88,80,75,77,18,-100,73,41,1,30.17,30.05,10,5,13,0.00
2013-7-18,94,82,76,79,7,-100,73,37,2,30.05,29.95,9,5,12,0.00
2013-7-19,84,80,76,65,-11,-100,55,20,5,29.95,29.79,13,8,21,0.00
2013-7-20,83,79,74,72,13,-100,75,34,1,29.82,29.70,15,8,21,0.00
2013-7-21,86,78,73,70,55,11,76,51,10,29.95,29.82,12,4,15,0.00
2013-7-22,80,75,72,66,-55,-100,63,10,1,29.95,29.82,11,5,17,0.00
2013-7-23,81,77,72,64,-49,-100,58,11,2,29.82,29.56,14,7,18,0.14
2013-7-24,88,78,71,76,4,-100,73,41,18,29.88,29.58,9,4,17,0.01
2013-7-25,73,66,62,63,11,-100,77,51,1,30.03,29.88,9,6,16,0.19
2013-7-26,74,67,62,64,-29,-100,74,23,1,30.05,29.92,13,7,18,0.18
2013-7-27,78,72,68,66,-24,-100,68,23,1,30.07,29.95,11,6,12,0.00
2013-7-28,78,74,70,68,-15,-100,72,28,6,30.00,29.92,10,4,12,0.00
2013-7-29,81,75,71,71,-10,-100,76,34,2,30.06,29.93,12,6,16,0.00
2013-7-30,83,75,68,65,62,60,78,64,48,30.13,30.05,11,6,15,0.00
2013-7-31,82,73,66,67,63,49,78,70,51,30.14,30.04,10,5,14,0.00
2013-8-1,76,72,68,69,50,-100,78,54,2,30.04,29.84,16,6,20,0.05
2013-8-2,83,74,69,70,4,-100,76,39,1,29.90,29.77,12,7,18,0.21
2013-8-3,75,73,70,66,59,42,77,63,32,29.90,29.83,12,6,15,0.01
2013-8-4,84,74,67,65,60,42,78,62,35,29.91,29.81,12,6,16,0.00
2013-8-5,79,71,65,61,56,50,79,62,41,30.04,29.91,13,7,19,0.00
2013-8-6,75,69,60,66,59,31,80,71,28,30.14,30.03,13,5,14,0.00
2013-8-7,73,68,61,66,51,-100,78,62,4,30.17,30.10,15,7,17,0.00
2013-8-8,78,74,70,66,22,-100,71,36,1,30.10,30.03,16,10,21,0.03
2013-8-9,76,74,73,3,-97,-100,6,0,1,30.04,29.80,21,12,25,0.05
2013-8-10,85,77,71,70,16,-100,76,47,2,30.02,29.81,11,6,19,0.00
2013-8-11,78,72,66,65,60,54,78,68,56,30.09,30.01,8,5,10,0.00
2013-8-12,78,73,67,70,10,-100,76,37,1,30.04,29.92,6,3,9,0.67
2013-8-13,74,70,67,53,-80,-100,49,4,1,29.93,29.67,14,3,19,0.63
2013-8-14,77,70,65,59,32,-100,76,52,4,30.00,29.69,12,8,21,0.00
2013-8-15,78,69,63,61,57,50,77,67,39,30.13,30.00,13,7,19,0.00
2013-8-16,77,71,65,66,62,53,78,72,56,30.19,30.11,10,5,13,0.00
2013-8-17,84,71,61,66,43,-100,77,52,2,30.26,30.19,8,3,11,0.00
2013-8-18,75,68,62,65,43,11,76,48,11,30.26,30.11,9,3,11,0.03
2013-8-19,80,70,62,68,52,-6,76,58,6,30.11,30.00,9,5,15,0.00
2013-8-20,86,74,65,71,44,-100,76,51,1,30.11,30.01,9,4,13,0.00
2013-8-21,83,74,66,73,-23,-100,74,29,3,30.15,30.05,9,4,13,0.00
2013-8-22,78,73,70,33,-82,-100,20,1,1,30.05,29.85,10,6,15,0.45
2013-8-23,84,74,66,68,16,-100,74,43,4,30.08,29.83,10,5,17,0.00
2013-8-24,79,68,60,62,49,-100,75,58,2,30.34,30.09,11,4,15,0.00
2013-8-25,80,68,57,66,32,-100,75,49,1,30.37,30.22,12,5,18,0.00
2013-8-26,74,72,70,65,38,-100,76,54,4,30.22,29.91,15,8,24,0.19
2013-8-27,85,73,69,74,-44,-100,73,19,2,29.91,29.79,11,4,17,0.39
2013-8-28,82,73,67,71,-49,-100,73,14,2,29.89,29.84,10,4,10,0.00
2013-8-29,78,70,66,69,-15,-100,73,30,6,30.03,29.88,9,5,12,0.00
2013-8-30,75,69,64,54,16,-100,54,33,3,30.02,29.86,15,5,19,0.00
2013-8-31,77,73,70,41,-73,-100,28,3,1,29.87,29.81,13,8,21,0.00
2013-9-1,77,73,71,-18,-97,-100,2,0,2,29.86,29.82,12,7,12,0.00
2013-9-2,75,73,71,-100,-100,-100,0,0,100,29.83,29.71,9,6,9,0.00
2013-9-3,74,71,68,62,-73,-100,72,10,28,29.84,29.70,7,4,7,2.02
2013-9-4,80,75,65,67,63,37,73,67,35,29.95,29.84,12,7,18,0.00
2013-9-5,78,71,64,66,55,50,71,57,49,30.11,29.95,12,7,15,0.00
2013-9-6,72,64,56,54,50,45,76,63,44,30.23,30.11,7,4,17,0.00
2013-9-7,71,65,55,61,55,40,76,68,52,30.12,29.89,15,7,25,0.00
2013-9-8,81,72,61,67,46,-100,75,57,39,30.06,29.78,11,7,20,0.00
2013-9-9,68,62,52,59,51,45,79,67,53,30.24,30.06,9,5,12,0.00
2013-9-10,74,70,67,61,19,-100,77,42,2,30.18,30.05,16,8,24,0.06
2013-9-11,77,73,70,52,-45,-100,42,10,1,30.11,30.00,12,7,17,0.00
2013-9-12,77,72,70,39,-84,-100,27,2,1,30.00,29.68,14,7,16,0.68
2013-9-13,80,71,64,69,-8,-100,74,38,17,29.77,29.60,13,5,21,0.02
2013-9-14,71,63,58,57,53,48,75,69,59,30.08,29.77,11,7,15,0.00
2013-9-15,69,62,55,57,52,44,76,70,57,30.18,30.08,10,5,13,0.00
2013-9-16,71,65,58,59,42,-100,75,56,2,30.19,30.03,13,4,18,0.00
2013-9-17,65,55,48,49,44,40,78,66,47,30.41,30.19,14,6,22,0.00
2013-9-18,68,58,46,54,44,7,75,61,17,30.34,30.18,10,4,15,0.00
2013-9-19,71,64,53,59,52,33,75,66,32,30.18,30.07,12,6,17,0.00
2013-9-20,71,65,54,62,5,-100,73,36,1,30.09,30.01,11,5,14,0.00
2013-9-21,74,67,57,55,-16,-100,52,20,2,30.02,29.71,19,9,24,0.00
2013-9-22,74,67,58,63,-17,-100,72,34,29,29.86,29.64,20,10,26,0.76
2013-9-23,66,59,53,50,48,45,75,67,55,30.00,29.85,13,9,21,0.00
2013-9-24,70,59,51,53,48,43,76,66,51,30.02,29.83,14,7,19,0.00
2013-9-25,72,60,50,58,45,10,77,59,18,29.93,29.87,10,4,12,0.00
2013-9-26,68,61,52,56,44,2,75,57,10,30.10,29.93,7,3,11,0.00
2013-9-27,67,62,52,56,46,12,74,60,20,30.25,30.09,8,4,11,0.00
2013-9-28,73,61,52,60,9,-100,73,38,2,30.30,30.23,9,3,13,0.00
2013-9-29,68,59,52,56,27,-100,73,42,1,30.23,30.08,11,4,13,0.00
2013-9-30,72,63,58,60,10,-100,72,37,1,30.08,29.97,7,4,11,0.00
2013-10-1,77,66,58,63,23,-100,72,44,1,29.97,29.87,11,5,13,0.00
2013-10-2,81,69,58,67,14,-100,72,38,3,29.98,29.87,11,4,12,0.00
2013-10-3,78,68,59,61,44,-100,74,54,2,30.09,29.97,8,4,12,0.00
2013-10-4,73,68,61,55,-9,-100,69,23,1,30.06,29.98,9,4,13,0.00
2013-10-5,72,65,62,62,-48,-100,69,17,5,30.09,30.01,7,3,9,0.00
2013-10-6,66,63,61,-100,-100,-100,0,0,100,30.14,30.06,12,6,17,0.26
2013-10-7,73,69,65,55,-68,-100,70,6,1,30.06,29.84,23,13,28,0.03
2013-10-8,68,62,56,56,50,47,73,65,49,30.31,29.92,15,8,21,0.00
2013-10-9,64,58,55,53,48,39,73,69,55,30.39,30.29,13,6,20,0.00
2013-10-10,66,61,56,51,40,28,66,48,28,30.29,30.08,12,7,20,0.00
2013-10-11,68,64,61,57,35,-3,72,42,7,30.08,30.01,13,8,22,0.00
2013-10-12,70,62,58,58,50,41,73,65,47,30.29,30.07,18,9,23,0.00
2013-10-13,62,57,52,53,45,30,73,63,38,30.38,30.27,15,7,20,0.00
2013-10-14,64,54,48,53,38,-2,73,57,13,30.37,30.25,9,3,13,0.00
2013-10-15,67,57,47,56,-1,-100,72,35,2,30.26,30.14,10,4,13,0.00
2013-10-16,67,62,57,55,12,-100,67,35,1,30.14,29.91,8,3,12,0.00
2013-10-17,67,63,58,24,-82,-100,20,2,1,29.91,29.73,11,6,17,0.00
2013-10-18,68,64,56,54,15,-100,71,49,20,29.95,29.66,17,9,22,0.00
2013-10-19,65,57,46,52,36,-46,73,52,1,29.99,29.75,9,3,11,0.01
2013-10-20,64,58,50,47,25,-100,72,50,1,30.05,29.72,12,7,20,0.01
2013-10-21,65,58,49,51,46,40,74,65,49,30.14,30.00,12,6,18,0.00
2013-10-22,66,61,54,56,51,46,74,70,58,30.00,29.72,12,8,18,0.00
2013-10-23,54,50,46,45,38,20,75,64,34,29.80,29.59,7,3,13,0.04
2013-10-24,56,50,45,41,36,32,75,60,41,29.95,29.70,14,8,20,0.00
2013-10-25,52,47,40,40,35,32,76,64,52,30.21,29.96,13,7,20,0.00
2013-10-26,56,50,41,46,39,34,76,66,54,30.20,29.91,23,11,33,0.00
2013-10-27,59,52,48,41,38,35,71,58,45,30.10,29.84,14,8,20,0.00
2013-10-28,58,51,44,46,40,35,76,66,54,30.30,30.09,13,6,22,0.00
2013-10-29,55,47,38,39,36,30,78,66,48,30.40,30.30,8,3,11,0.00
2013-10-30,59,51,38,50,36,8,76,59,20,30.36,30.19,8,2,10,0.00
2013-10-31,65,60,51,39,-29,-100,39,13,1,30.23,29.84,19,9,24,0.00
2013-11-1,67,64,60,34,-32,-100,34,9,1,29.84,29.56,23,13,33,0.01
2013-11-2,66,59,55,55,13,-100,72,48,2,29.74,29.61,7,4,11,0.00
2013-11-3,57,49,38,48,38,25,74,66,54,30.40,29.74,14,8,19,0.00
2013-11-4,48,40,34,33,28,24,76,62,45,30.66,30.40,12,6,20,0.00
2013-11-5,53,45,39,41,36,31,75,70,63,30.67,30.51,9,4,11,0.00
2013-11-6,60,53,40,51,18,-100,72,42,1,30.52,30.08,10,4,14,0.00
2013-11-7,61,56,46,41,-67,-100,74,16,8,30.08,29.70,17,9,24,0.23
2013-11-8,51,46,41,37,34,31,75,64,50,30.17,29.88,16,10,25,0.00
2013-11-9,52,46,39,43,34,30,74,63,49,30.26,30.03,14,7,21,0.00
2013-11-10,62,52,48,47,41,34,74,66,40,30.03,29.76,18,11,31,0.00
2013-11-11,54,50,46,45,38,33,73,62,53,30.16,29.96,19,11,27,0.00
2013-11-12,53,40,33,43,28,5,76,62,29,30.23,29.91,17,12,25,0.08
2013-11-13,39,34,31,25,22,19,70,61,48,30.32,30.21,15,10,24,0.00
2013-11-14,49,43,34,34,28,22,66,55,40,30.26,30.13,15,9,22,0.00
2013-11-15,53,49,45,45,35,17,76,60,29,30.23,30.17,14,6,18,0.00
2013-11-16,55,49,44,47,28,-100,75,57,1,30.32,30.22,9,4,11,0.00
2013-11-17,60,56,46,15,-91,-100,17,1,1,30.29,29.84,13,7,16,0.00
2013-11-18,62,58,52,52,-14,-100,72,37,8,29.84,29.60,22,10,33,0.14
2013-11-19,52,45,36,38,31,26,67,58,50,30.31,29.72,17,13,26,0.00
2013-11-20,44,36,31,26,24,22,76,62,42,30.61,30.31,13,6,22,0.00
2013-11-21,51,42,31,41,33,24,77,72,61,30.61,30.39,9,4,11,0.00
2013-11-22,54,52,48,40,-44,-100,66,20,2,30.39,29.87,10,4,14,0.04
2013-11-23,52,44,34,42,25,-100,77,58,49,29.95,29.85,19,11,31,0.04
2013-11-24,34,28,26,20,12,6,62,50,38,30.30,29.88,23,17,35,0.00
2013-11-25,37,30,25,27,18,13,70,61,46,30.45,30.30,14,7,19,0.00
2013-11-26,54,42,37,34,3,-100,74,47,1,30.33,29.90,14,6,20,0.15
2013-11-27,60,50,39,33,-78,-100,73,11,9,29.88,29.22,32,16,38,0.73
2013-11-28,39,34,29,31,22,17,75,63,51,30.47,29.64,20,11,30,0.00
2013-11-29,40,34,30,27,22,18,73,61,55,30.72,30.46,9,4,18,0.00
2013-11-30,43,33,25,35,23,17,76,67,53,30.76,30.39,12,5,15,0.00
2013-12-1,52,47,38,39,-29,-100,74,29,1,30.39,30.00,14,7,18,0.11
2013-12-2,50,41,38,40,-61,-100,72,13,1,30.00,29.88,6,2,7,0.00
2013-12-3,50,43,38,41,-19,-100,73,39,5,29.99,29.86,9,5,13,0.00
2013-12-4,52,43,34,41,14,-49,73,40,1,30.15,29.98,7,1,8,0.00
2013-12-5,58,54,47,12,-92,-100,19,1,1,30.15,29.95,13,6,16,0.00
2013-12-6,56,48,40,14,-86,-100,30,2,1,30.10,29.89,13,7,17,0.33
2013-12-7,42,38,34,35,-7,-100,78,47,3,30.48,30.04,13,8,19,0.30
2013-12-8,35,33,31,26,24,6,75,69,31,30.59,30.39,11,5,16,0.01
2013-12-9,51,42,34,3,-91,-100,26,1,1,30.39,29.88,16,8,25,0.29
2013-12-10,40,36,30,29,-26,-100,76,24,1,30.08,29.81,13,6,21,0.11
2013-12-11,36,31,28,24,21,19,76,66,54,30.30,30.09,15,9,21,0.00
2013-12-12,30,27,23,21,15,10,71,62,50,30.31,30.14,12,7,17,0.00
2013-12-13,37,30,23,24,16,10,73,56,48,30.34,30.09,16,9,25,0.00
2013-12-14,44,29,23,23,-8,-100,77,50,1,30.53,29.90,21,10,32,0.30
2013-12-15,53,39,33,31,-43,-100,75,31,4,29.90,29.40,21,10,28,1.07
2013-12-16,34,30,24,27,18,13,74,62,50,30.22,29.81,16,8,24,0.00
2013-12-17,46,30,24,21,-14,-100,76,37,1,30.24,29.86,13,6,18,0.20
2013-12-18,37,32,26,28,20,6,76,64,42,30.16,29.86,12,8,18,0.00
2013-12-19,46,39,30,38,31,23,76,72,62,30.17,30.01,14,7,25,0.00
2013-12-20,49,44,36,40,4,-100,74,39,1,30.12,29.98,12,5,17,0.00
2013-12-21,52,48,44,20,-76,-100,29,4,1,30.02,29.92,13,6,19,0.00
2013-12-22,60,52,49,26,-91,-100,28,1,8,30.00,29.86,19,10,25,0.00
2013-12-23,54,50,42,-34,-100,-100,3,0,3,30.10,29.88,11,5,16,0.51
2013-12-24,42,37,31,32,25,-18,75,64,7,30.26,30.04,15,10,26,0.02
2013-12-25,33,26,23,26,15,11,74,61,53,30.54,30.26,15,7,22,0.00
2013-12-26,44,37,32,36,28,24,75,71,57,30.44,30.12,14,6,18,0.00
2013-12-27,41,35,30,29,25,21,76,67,50,30.33,30.24,13,7,19,0.00
2013-12-28,49,42,33,40,31,12,75,66,28,30.28,30.06,16,7,26,0.00
2013-12-29,54,45,41,34,-35,-100,68,20,1,30.07,29.34,21,8,26,1.22
2013-12-30,46,37,23,37,-4,-100,74,43,1,30.16,29.62,13,9,23,0.00
2013-12-31,31,26,21,23,17,12,75,67,55,30.24,30.06,14,6,21,0.00
2014-1-1,33,29,24,24,18,14,76,64,56,30.41,30.24,11,5,15,0.00
2014-1-2,34,31,19,26,-2,-57,76,34,1,30.28,29.64,15,10,26,0.09